• In Lithuania
  • List of Countries
  • For 7 days
  • Water Temperature
  • Satellite Maps
  • Weather Map
  • Weather Widgets
  • user-avatar
    Login

    Hourly Weather Gori

    Today, 23 June, Saturday

    Time Temperature Precipitation Wind Pressure Humidity
    00:00 +19°C° 0 mm 1 mps 697 mmHg 73%
    01:00 +19°C° 0.1 mm 1 mps 697 mmHg 73%
    02:00 +18°C° 0.1 mm 1 mps 697 mmHg 72%
    03:00 +18°C° 0 mm 1 mps 697 mmHg 71%
    04:00 +19°C° 0 mm 1 mps 697 mmHg 69%
    05:00 +19°C° 0 mm 1 mps 697 mmHg 67%
    06:00 +20°C° 0 mm 1 mps 697 mmHg 65%
    07:00 +23°C° 0 mm 2 mps 698 mmHg 59%
    08:00 +25°C° 0 mm 2 mps 698 mmHg 53%
    09:00 +27°C° 0 mm 3 mps 698 mmHg 46%
    10:00 +28°C° 0.1 mm 3 mps 698 mmHg 45%
    11:00 +29°C° 0.1 mm 3 mps 698 mmHg 43%
    12:00 +30°C° 0.1 mm 3 mps 698 mmHg 41%
    13:00 +30°C° 0.3 mm 3 mps 698 mmHg 42%
    14:00 +30°C° 0.3 mm 3 mps 697 mmHg 43%
    15:00 +30°C° 0.3 mm 3 mps 697 mmHg 43%
    16:00 +29°C° 0.4 mm 2 mps 697 mmHg 50%
    17:00 +27°C° 0.4 mm 2 mps 697 mmHg 57%
    18:00 +26°C° 0.4 mm 2 mps 697 mmHg 64%
    19:00 +24°C° 0.1 mm 2 mps 697 mmHg 71%
    20:00 +21°C° 0.1 mm 2 mps 698 mmHg 77%
    21:00 +21°C° 0.1 mm 1 mps 698 mmHg 84%
    22:00 +20°C° 0 mm 1 mps 698 mmHg 84%
    23:00 +20°C° 0 mm 1 mps 698 mmHg 85%

    Tomorrow, 24 June, Sunday

    Time Temperature Precipitation Wind Pressure Humidity
    00:00 +19°C° 0 mm 1 mps 698 mmHg 85%
    01:00 +19°C° 0 mm 1 mps 698 mmHg 85%
    02:00 +18°C° 0 mm 1 mps 698 mmHg 85%
    03:00 +18°C° 0 mm 1 mps 698 mmHg 85%
    04:00 +19°C° 0 mm 1 mps 698 mmHg 82%
    05:00 +20°C° 0 mm 1 mps 699 mmHg 79%
    06:00 +21°C° 0 mm 1 mps 699 mmHg 76%
    07:00 +23°C° 0 mm 1 mps 699 mmHg 69%
    08:00 +25°C° 0 mm 1 mps 699 mmHg 62%
    09:00 +27°C° 0 mm 1 mps 699 mmHg 55%
    10:00 +28°C° 0 mm 1 mps 699 mmHg 51%
    11:00 +29°C° 0 mm 2 mps 699 mmHg 48%
    12:00 +30°C° 0 mm 2 mps 699 mmHg 44%
    13:00 +30°C° 0.1 mm 2 mps 699 mmHg 45%
    14:00 +30°C° 0.1 mm 2 mps 699 mmHg 46%
    15:00 +30°C° 0.1 mm 3 mps 699 mmHg 46%
    16:00 +29°C° 0.3 mm 3 mps 699 mmHg 53%
    17:00 +28°C° 0.3 mm 2 mps 699 mmHg 59%
    18:00 +26°C° 0.3 mm 2 mps 699 mmHg 66%
    19:00 +25°C° 0.2 mm 2 mps 700 mmHg 73%
    20:00 +23°C° 0.2 mm 2 mps 700 mmHg 79%
    21:00 +21°C° 0.2 mm 2 mps 700 mmHg 86%
    22:00 +20°C° 0.1 mm 2 mps 700 mmHg 87%
    23:00 +21°C° 0.1 mm 1 mps 700 mmHg 87%

    Day after tomorrow, 25 June, Monday

    Time Temperature Precipitation Wind Pressure Humidity
    00:00 +20°C° 0.1 mm 1 mps 700 mmHg 88%
    01:00 +20°C° 0 mm 1 mps 700 mmHg 87%
    02:00 +19°C° 0 mm 1 mps 700 mmHg 86%
    03:00 +19°C° 0 mm 1 mps 700 mmHg 84%
    04:00 +20°C° 0 mm 1 mps 700 mmHg 80%
    05:00 +21°C° 0 mm 1 mps 700 mmHg 77%
    06:00 +22°C° 0 mm 1 mps 700 mmHg 73%
    07:00 +24°C° 0 mm 2 mps 700 mmHg 63%
    08:00 +26°C° 0 mm 2 mps 700 mmHg 54%
    09:00 +29°C° 0 mm 3 mps 700 mmHg 44%
    10:00 +30°C° 0 mm 3 mps 700 mmHg 42%
    11:00 +32°C° 0 mm 4 mps 700 mmHg 40%
    12:00 +33°C° 0 mm 4 mps 700 mmHg 37%
    13:00 +33°C° 0.1 mm 4 mps 700 mmHg 36%
    14:00 +34°C° 0.1 mm 4 mps 700 mmHg 36%
    15:00 +34°C° 0.1 mm 5 mps 700 mmHg 35%
    16:00 +33°C° 0 mm 4 mps 700 mmHg 37%
    17:00 +32°C° 0 mm 4 mps 700 mmHg 40%
    18:00 +31°C° 0 mm 3 mps 700 mmHg 43%
    19:00 +28°C° 0 mm 3 mps 700 mmHg 48%
    20:00 +25°C° 0 mm 2 mps 700 mmHg 53%
    21:00 +23°C° 0 mm 1 mps 700 mmHg 59%
    22:00 +22°C° 0 mm 1 mps 700 mmHg 57%
    23:00 +21°C° 0 mm 1 mps 700 mmHg 55%

    26 June, Tuesday

    Time Temperature Precipitation Wind Pressure Humidity
    00:00 +21°C° 0 mm 1 mps 700 mmHg 53%
    01:00 +20°C° 0 mm 1 mps 700 mmHg 53%
    02:00 +20°C° 0 mm 1 mps 699 mmHg 53%
    03:00 +20°C° 0 mm 1 mps 699 mmHg 52%
    04:00 +21°C° 0 mm 1 mps 699 mmHg 53%
    05:00 +22°C° 0 mm 1 mps 699 mmHg 54%
    06:00 +23°C° 0 mm 1 mps 699 mmHg 54%
    07:00 +25°C° 0 mm 2 mps 700 mmHg 49%
    08:00 +28°C° 0 mm 2 mps 700 mmHg 43%
    09:00 +30°C° 0 mm 3 mps 700 mmHg 38%
    10:00 +31°C° 0 mm 3 mps 700 mmHg 36%
    11:00 +33°C° 0 mm 4 mps 699 mmHg 34%
    12:00 +35°C° 0 mm 4 mps 699 mmHg 32%
    13:00 +35°C° 0 mm 4 mps 699 mmHg 31%
    14:00 +35°C° 0 mm 4 mps 699 mmHg 31%
    15:00 +36°C° 0 mm 4 mps 699 mmHg 31%
    16:00 +35°C° 0 mm 4 mps 699 mmHg 33%
    17:00 +34°C° 0 mm 4 mps 699 mmHg 36%
    18:00 +33°C° 0 mm 3 mps 699 mmHg 39%
    19:00 +29°C° 0 mm 3 mps 699 mmHg 42%
    20:00 +27°C° 0 mm 2 mps 699 mmHg 46%
    21:00 +24°C° 0 mm 2 mps 699 mmHg 50%
    22:00 +23°C° 0 mm 2 mps 699 mmHg 49%
    23:00 +23°C° 0 mm 2 mps 699 mmHg 47%

    27 June, Wednesday

    Time Temperature Precipitation Wind Pressure Humidity
    00:00 +21°C° 0 mm 2 mps 699 mmHg 45%
    01:00 +21°C° 0 mm 2 mps 699 mmHg 46%
    02:00 +20°C° 0 mm 2 mps 698 mmHg 46%
    03:00 +20°C° 0 mm 2 mps 698 mmHg 46%
    04:00 +21°C° 0 mm 2 mps 698 mmHg 48%
    05:00 +23°C° 0 mm 2 mps 699 mmHg 50%
    06:00 +23°C° 0 mm 2 mps 699 mmHg 51%
    07:00 +26°C° 0 mm 2 mps 699 mmHg 46%
    08:00 +29°C° 0 mm 3 mps 699 mmHg 40%
    09:00 +31°C° 0 mm 3 mps 699 mmHg 35%
    10:00 +33°C° 0 mm 3 mps 699 mmHg 33%
    11:00 +35°C° 0 mm 3 mps 699 mmHg 31%
    12:00 +36°C° 0 mm 4 mps 699 mmHg 30%
    13:00 +36°C° 0 mm 4 mps 699 mmHg 29%
    14:00 +37°C° 0 mm 3 mps 699 mmHg 29%
    15:00 +37°C° 0 mm 3 mps 698 mmHg 28%
    16:00 +36°C° 0 mm 3 mps 698 mmHg 31%
    17:00 +36°C° 0 mm 3 mps 698 mmHg 34%
    18:00 +35°C° 0 mm 2 mps 698 mmHg 37%
    19:00 +31°C° 0 mm 2 mps 698 mmHg 42%
    20:00 +28°C° 0 mm 2 mps 699 mmHg 48%
    21:00 +25°C° 0 mm 1 mps 699 mmHg 53%
    22:00 +24°C° 0 mm 1 mps 699 mmHg 54%
    23:00 +23°C° 0 mm 1 mps 699 mmHg 54%

    28 June, Thursday

    Time Temperature Precipitation Wind Pressure Humidity
    00:00 +23°C° 0 mm 1 mps 699 mmHg 55%
    01:00 +22°C° 0 mm 1 mps 699 mmHg 53%
    02:00 +22°C° 0 mm 1 mps 699 mmHg 51%
    03:00 +22°C° 0 mm 1 mps 699 mmHg 49%
    04:00 +22°C° 0 mm 1 mps 699 mmHg 48%
    05:00 +23°C° 0 mm 1 mps 699 mmHg 47%
    06:00 +24°C° 0 mm 1 mps 700 mmHg 46%
    07:00 +27°C° 0 mm 1 mps 700 mmHg 41%
    08:00 +29°C° 0 mm 2 mps 700 mmHg 35%
    09:00 +32°C° 0 mm 2 mps 700 mmHg 29%
    10:00 +34°C° 0 mm 2 mps 700 mmHg 28%
    11:00 +35°C° 0 mm 3 mps 700 mmHg 27%
    12:00 +36°C° 0 mm 3 mps 700 mmHg 26%
    13:00 +37°C° 0 mm 3 mps 700 mmHg 26%
    14:00 +37°C° 0 mm 4 mps 700 mmHg 25%
    15:00 +38°C° 0 mm 4 mps 700 mmHg 25%
    16:00 +37°C° 0 mm 3 mps 700 mmHg 28%
    17:00 +36°C° 0 mm 3 mps 700 mmHg 31%
    18:00 +35°C° 0 mm 3 mps 700 mmHg 33%
    19:00 +31°C° 0 mm 2 mps 700 mmHg 37%
    20:00 +28°C° 0 mm 2 mps 700 mmHg 41%
    21:00 +24°C° 0 mm 2 mps 700 mmHg 45%
    22:00 +24°C° 0 mm 2 mps 700 mmHg 44%
    23:00 +23°C° 0 mm 2 mps 699 mmHg 43%
    Show more